QPF
0.00 0.00 0.01 0.02 0.02 0.03 0.03 0.04 0.04 0.04 0.05 0.05 0.07 0.07 0.06 0.06 0.06 0.05 0.05 0.05 0.04 0.04 0.03 0.02 0.02 0.02 0.02 0.02 0.01 0.01 0.01 0.02 0.01 0.01 0.02 0.03 0.04 0.03 0.03 0.02 0.01 0.01 0.01
0.00 0.00 0.01 0.01 0.02 0.02 0.02 0.02 0.03 0.04 0.05 0.05 0.05 0.06 0.06 0.06 0.06 0.06 0.05 0.05 0.05 0.04 0.04 0.03 0.03 0.02 0.02 0.02 0.02 0.02 0.02 0.02 0.02 0.02 0.02 0.03 0.05 0.06 0.04 0.02 0.01 0.00 0.01
0.00 0.00 0.00 0.01 0.01 0.02 0.02 0.02 0.02 0.03 0.05 0.06 0.06 0.06 0.07 0.08 0.07 0.07 0.07 0.06 0.06 0.06 0.05 0.04 0.04 0.04 0.04 0.03 0.03 0.02 0.02 0.03 0.03 0.02 0.02 0.03 0.04 0.07 0.06 0.03 0.01 0.00 0.01
0.00 0.00 0.00 0.00 0.01 0.01 0.02 0.02 0.02 0.02 0.03 0.05 0.04 0.05 0.05 0.05 0.05 0.05 0.06 0.07 0.08 0.06 0.05 0.04 0.04 0.04 0.03 0.03 0.02 0.02 0.02 0.02 0.03 0.02 0.01 0.02 0.03 0.07 0.09 0.05 0.02 0.00 0.01
0.00 0.00 0.00 0.00 0.00 0.01 0.01 0.01 0.01 0.01 0.02 0.03 0.04 0.03 0.04 0.04 0.06 0.06 0.06 0.07 0.08 0.08 0.06 0.05 0.04 0.04 0.03 0.03 0.02 0.02 0.02 0.01 0.02 0.02 0.01 0.01 0.02 0.05 0.08 0.06 0.03 0.01 0.01
0.01 0.00 0.00 0.00 0.00 0.00 0.01 0.01 0.01 0.01 0.02 0.02 0.03 0.03 0.03 0.04 0.05 0.05 0.06 0.05 0.06 0.07 0.07 0.05 0.04 0.04 0.03 0.03 0.02 0.02 0.02 0.01 0.01 0.02 0.03 0.02 0.02 0.03 0.07 0.06 0.03 0.01 0.01
0.01 0.01 0.01 0.01 0.01 0.00 0.00 0.01 0.01 0.01 0.01 0.02 0.02 0.03 0.03 0.04 0.04 0.04 0.05 0.06 0.05 0.05 0.05 0.05 0.04 0.04 0.04 0.03 0.03 0.03 0.02 0.02 0.01 0.02 0.04 0.03 0.02 0.03 0.04 0.06 0.04 0.01 0.01
0.01 0.01 0.01 0.01 0.01 0.01 0.01 0.01 0.01 0.01 0.01 0.01 0.02 0.02 0.03 0.03 0.04 0.04 0.05 0.05 0.05 0.05 0.04 0.04 0.03 0.03 0.03 0.03 0.03 0.04 0.03 0.03 0.02 0.01 0.03 0.05 0.04 0.03 0.04 0.04 0.05 0.03 0.01
0.01 0.01 0.01 0.01 0.01 0.01 0.01 0.01 0.01 0.01 0.02 0.02 0.02 0.02 0.02 0.02 0.03 0.03 0.04 0.05 0.06 0.06 0.05 0.04 0.03 0.03 0.03 0.02 0.02 0.03 0.03 0.03 0.03 0.02 0.02 0.03 0.05 0.04 0.05 0.04 0.04 0.04 0.02
0.01 0.01 0.01 0.01 0.01 0.01 0.01 0.01 0.01 0.01 0.02 0.02 0.02 0.02 0.02 0.02 0.02 0.03 0.04 0.06 0.07 0.08 0.08 0.07 0.04 0.03 0.03 0.03 0.03 0.03 0.02 0.03 0.03 0.03 0.03 0.03 0.04 0.05 0.05 0.06 0.04 0.04 0.03
0.00 0.01 0.01 0.01 0.01 0.01 0.01 0.01 0.01 0.01 0.01 0.02 0.02 0.02 0.02 0.01 0.02 0.02 0.03 0.04 0.06 0.08 0.10 0.10 0.09 0.06 0.04 0.03 0.04 0.03 0.03 0.03 0.03 0.03 0.03 0.02 0.02 0.04 0.04 0.06 0.06 0.04 0.03
0.00 0.00 0.01 0.01 0.01 0.01 0.01 0.01 0.01 0.01 0.02 0.02 0.02 0.03 0.02 0.01 0.01 0.01 0.01 0.02 0.03 0.05 0.07 0.08 0.10 0.10 0.08 0.05 0.04 0.04 0.04 0.03 0.03 0.03 0.03 0.03 0.03 0.03 0.03 0.04 0.06 0.05 0.04
0.00 0.00 0.00 0.00 0.00 0.01 0.01 0.01 0.01 0.01 0.02 0.02 0.03 0.03 0.02 0.02 0.01 0.01 0.01 0.01 0.01 0.03 0.05 0.06 0.07 0.08 0.09 0.09 0.08 0.06 0.05 0.04 0.04 0.03 0.03 0.03 0.03 0.03 0.03 0.03 0.04 0.05 0.04
0.00 0.00 0.00 0.00 0.00 0.01 0.01 0.01 0.01 0.01 0.02 0.02 0.03 0.02 0.02 0.02 0.02 0.01 0.01 0.01 0.01 0.01 0.03 0.06 0.07 0.07 0.07 0.08 0.09 0.09 0.08 0.07 0.05 0.04 0.04 0.03 0.03 0.03 0.03 0.03 0.04 0.04 0.04
0.00 0.00 0.00 0.00 0.00 0.00 0.00 0.01 0.01 0.01 0.02 0.02 0.02 0.02 0.02 0.02 0.01 0.01 0.01 0.01 0.01 0.01 0.01 0.02 0.04 0.06 0.07 0.07 0.08 0.09 0.09 0.08 0.07 0.06 0.05 0.04 0.04 0.03 0.03 0.03 0.03 0.05 0.04
0.00 0.00 0.00 0.00 0.00 0.00 0.00 0.01 0.01 0.01 0.02 0.02 0.02 0.02 0.02 0.01 0.01 0.01 0.01 0.01 0.01 0.01 0.01 0.02 0.02 0.03 0.05 0.06 0.07 0.08 0.07 0.07 0.07 0.07 0.07 0.06 0.05 0.05 0.04 0.04 0.04 0.04 0.04
0.00 0.00 0.00 0.00 0.01 0.01 0.01 0.01 0.01 0.01 0.01 0.02 0.02 0.02 0.01 0.01 0.01 0.01 0.01 0.01 0.01 0.01 0.01 0.02 0.02 0.03 0.04 0.04 0.05 0.06 0.06 0.05 0.05 0.06 0.06 0.06 0.06 0.05 0.04 0.04 0.04 0.04 0.04
0.00 0.00 0.01 0.01 0.00 0.01 0.01 0.01 0.01 0.01 0.01 0.01 0.01 0.01 0.01 0.01 0.01 0.01 0.01 0.01 0.01 0.01 0.01 0.01 0.02 0.03 0.04 0.04 0.04 0.05 0.05 0.05 0.05 0.04 0.05 0.05 0.05 0.04 0.04 0.04 0.03 0.02 0.02
0.01 0.01 0.01 0.01 0.01 0.01 0.01 0.01 0.01 0.01 0.01 0.01 0.01 0.01 0.01 0.01 0.01 0.01 0.01 0.01 0.01 0.01 0.01 0.01 0.01 0.01 0.02 0.04 0.05 0.05 0.04 0.04 0.04 0.05 0.04 0.04 0.04 0.04 0.04 0.04 0.03 0.02 0.01
0.01 0.01 0.01 0.01 0.01 0.01 0.01 0.01 0.01 0.01 0.01 0.01 0.01 0.01 0.01 0.01 0.01 0.01 0.01 0.01 0.01 0.01 0.01 0.01 0.01 0.01 0.02 0.02 0.03 0.04 0.05 0.05 0.04 0.04 0.04 0.05 0.05 0.05 0.05 0.04 0.03 0.03 0.02
0.01 0.01 0.01 0.01 0.01 0.01 0.01 0.01 0.01 0.01 0.01 0.01 0.01 0.01 0.01 0.01 0.01 0.01 0.01 0.01 0.01 0.01 0.01 0.01 0.01 0.01 0.01 0.02 0.02 0.03 0.04 0.05 0.05 0.04 0.04 0.04 0.04 0.05 0.05 0.05 0.04 0.03 0.03
0.01 0.01 0.01 0.01 0.01 0.01 0.01 0.01 0.01 0.01 0.01 0.01 0.01 0.01 0.01 0.01 0.01 0.01 0.01 0.01 0.01 0.01 0.01 0.01 0.01 0.01 0.01 0.01 0.02 0.02 0.03 0.03 0.04 0.04 0.04 0.03 0.03 0.04 0.04 0.05 0.05 0.05 0.04
0.01 0.01 0.01 0.01 0.01 0.01 0.01 0.01 0.01 0.01 0.01 0.01 0.01 0.01 0.01 0.01 0.01 0.01 0.01 0.01 0.01 0.01 0.01 0.00 0.00 0.00 0.00 0.01 0.01 0.01 0.02 0.03 0.03 0.03 0.03 0.03 0.03 0.03 0.03 0.04 0.04 0.04 0.05
0.01 0.01 0.01 0.01 0.01 0.01 0.01 0.01 0.01 0.01 0.01 0.01 0.01 0.01 0.01 0.01 0.01 0.01 0.01 0.01 0.01 0.01 0.01 0.01 0.01 0.00 0.00 0.01 0.01 0.01 0.01 0.02 0.02 0.02 0.02 0.02 0.02 0.02 0.02 0.03 0.03 0.04 0.04
0.01 0.01 0.01 0.01 0.01 0.00 0.00 0.00 0.01 0.01 0.01 0.01 0.01 0.01 0.01 0.01 0.01 0.01 0.01 0.01 0.01 0.01 0.01 0.01 0.01 0.01 0.02 0.02 0.03 0.03 0.03 0.03 0.03 0.02 0.03 0.02 0.02 0.02 0.02 0.02 0.02 0.03 0.03
0.01 0.01 0.01 0.01 0.01 0.00 0.00 0.00 0.00 0.01 0.01 0.01 0.01 0.01 0.01 0.01 0.01 0.01 0.01 0.00 0.01 0.01 0.01 0.01 0.02 0.02 0.02 0.02 0.02 0.03 0.03 0.03 0.03 0.03 0.03 0.02 0.02 0.02 0.02 0.02 0.02 0.03 0.03
MSLP
1027.37 1027.55 1027.55 1027.39 1027.09 1026.72 1026.31 1025.90 1025.54 1025.23 1025.01 1024.86 1024.78 1024.74 1024.73 1024.72 1024.70 1024.64 1024.56 1024.46 1024.35 1024.24 1024.15 1024.08 1024.03 1023.97 1023.89 1023.76 1023.57 1023.31 1022.97 1022.59 1022.19 1021.81 1021.49 1021.27 1021.14 1021.13 1021.20 1021.31 1021.42 1021.50 1021.50
1027.86 1028.12 1028.18 1028.06 1027.78 1027.41 1026.99 1026.56 1026.18 1025.88 1025.66 1025.52 1025.45 1025.41 1025.39 1025.36 1025.29 1025.20 1025.06 1024.91 1024.76 1024.63 1024.53 1024.46 1024.42 1024.38 1024.32 1024.21 1024.03 1023.77 1023.43 1023.04 1022.61 1022.21 1021.86 1021.60 1021.44 1021.39 1021.42 1021.51 1021.61 1021.68 1021.69
1028.20 1028.54 1028.67 1028.60 1028.36 1028.02 1027.61 1027.20 1026.83 1026.54 1026.34 1026.21 1026.15 1026.12 1026.09 1026.03 1025.93 1025.78 1025.60 1025.40 1025.21 1025.04 1024.92 1024.83 1024.78 1024.74 1024.68 1024.57 1024.39 1024.14 1023.80 1023.41 1023.00 1022.59 1022.23 1021.94 1021.75 1021.66 1021.66 1021.71 1021.78 1021.84 1021.85
1028.33 1028.75 1028.95 1028.96 1028.79 1028.50 1028.14 1027.76 1027.43 1027.16 1026.98 1026.88 1026.82 1026.79 1026.76 1026.68 1026.55 1026.37 1026.16 1025.92 1025.69 1025.48 1025.32 1025.20 1025.12 1025.05 1024.96 1024.84 1024.67 1024.42 1024.10 1023.73 1023.33 1022.94 1022.59 1022.30 1022.09 1021.96 1021.91 1021.92 1021.95 1021.99 1021.99
1028.28 1028.76 1029.05 1029.14 1029.05 1028.84 1028.55 1028.23 1027.95 1027.72 1027.56 1027.48 1027.43 1027.40 1027.36 1027.27 1027.13 1026.93 1026.69 1026.42 1026.16 1025.92 1025.72 1025.56 1025.43 1025.31 1025.20 1025.05 1024.86 1024.62 1024.32 1023.98 1023.62 1023.27 1022.94 1022.66 1022.44 1022.28 1022.19 1022.14 1022.13 1022.12 1022.12
1028.12 1028.64 1029.00 1029.17 1029.18 1029.06 1028.85 1028.61 1028.38 1028.20 1028.07 1027.99 1027.95 1027.92 1027.87 1027.77 1027.62 1027.42 1027.17 1026.89 1026.61 1026.34 1026.10 1025.89 1025.71 1025.55 1025.38 1025.20 1025.00 1024.76 1024.49 1024.19 1023.88 1023.57 1023.27 1023.01 1022.79 1022.61 1022.47 1022.37 1022.30 1022.25 1022.22
1027.91 1028.46 1028.86 1029.11 1029.21 1029.18 1029.07 1028.90 1028.74 1028.60 1028.50 1028.43 1028.39 1028.35 1028.28 1028.18 1028.02 1027.82 1027.57 1027.29 1027.00 1026.71 1026.44 1026.19 1025.96 1025.74 1025.53 1025.31 1025.09 1024.85 1024.60 1024.34 1024.08 1023.82 1023.57 1023.34 1023.12 1022.92 1022.75 1022.60 1022.47 1022.37 1022.30
1027.76 1028.29 1028.72 1029.02 1029.20 1029.25 1029.23 1029.14 1029.04 1028.94 1028.86 1028.80 1028.74 1028.68 1028.60 1028.48 1028.32 1028.11 1027.87 1027.59 1027.30 1027.00 1026.71 1026.42 1026.15 1025.88 1025.62 1025.37 1025.13 1024.89 1024.66 1024.44 1024.22 1024.01 1023.81 1023.60 1023.40 1023.19 1022.98 1022.79 1022.61 1022.46 1022.35
1027.72 1028.20 1028.62 1028.94 1029.17 1029.29 1029.34 1029.33 1029.28 1029.22 1029.16 1029.10 1029.03 1028.94 1028.84 1028.69 1028.52 1028.31 1028.06 1027.79 1027.50 1027.20 1026.89 1026.57 1026.26 1025.96 1025.66 1025.37 1025.11 1024.87 1024.65 1024.46 1024.28 1024.12 1023.96 1023.78 1023.59 1023.38 1023.16 1022.93 1022.72 1022.53 1022.38
1027.80 1028.20 1028.57 1028.89 1029.13 1029.31 1029.41 1029.46 1029.47 1029.44 1029.40 1029.33 1029.24 1029.13 1028.99 1028.82 1028.62 1028.39 1028.15 1027.88 1027.59 1027.28 1026.96 1026.63 1026.30 1025.96 1025.62 1025.31 1025.03 1024.78 1024.57 1024.40 1024.25 1024.12 1023.99 1023.84 1023.67 1023.47 1023.24 1023.00 1022.76 1022.55 1022.38
1027.99 1028.28 1028.57 1028.85 1029.09 1029.28 1029.42 1029.52 1029.57 1029.58 1029.55 1029.48 1029.37 1029.23 1029.05 1028.85 1028.63 1028.38 1028.12 1027.85 1027.57 1027.26 1026.94 1026.60 1026.24 1025.88 1025.52 1025.18 1024.87 1024.61 1024.40 1024.24 1024.11 1024.00 1023.90 1023.77 1023.62 1023.44 1023.22 1022.98 1022.74 1022.52 1022.34
1028.22 1028.40 1028.60 1028.81 1029.01 1029.20 1029.36 1029.49 1029.57 1029.61 1029.60 1029.53 1029.41 1029.24 1029.04 1028.80 1028.55 1028.29 1028.02 1027.74 1027.45 1027.15 1026.82 1026.48 1026.11 1025.73 1025.35 1024.99 1024.66 1024.39 1024.16 1024.00 1023.87 1023.77 1023.68 1023.58 1023.45 1023.28 1023.08 1022.86 1022.64 1022.43 1022.26
1028.46 1028.53 1028.63 1028.76 1028.91 1029.08 1029.24 1029.38 1029.48 1029.54 1029.54 1029.47 1029.35 1029.16 1028.94 1028.68 1028.40 1028.12 1027.84 1027.56 1027.27 1026.96 1026.64 1026.29 1025.91 1025.52 1025.13 1024.75 1024.40 1024.11 1023.87 1023.69 1023.56 1023.46 1023.37 1023.28 1023.17 1023.03 1022.86 1022.66 1022.47 1022.28 1022.13
1028.69 1028.66 1028.67 1028.72 1028.80 1028.92 1029.06 1029.20 1029.31 1029.37 1029.38 1029.32 1029.19 1028.99 1028.75 1028.48 1028.19 1027.89 1027.60 1027.32 1027.03 1026.73 1026.41 1026.06 1025.68 1025.28 1024.87 1024.48 1024.11 1023.79 1023.53 1023.33 1023.19 1023.08 1022.99 1022.91 1022.81 1022.69 1022.54 1022.38 1022.22 1022.07 1021.95
1028.92 1028.81 1028.74 1028.71 1028.72 1028.79 1028.88 1028.99 1029.09 1029.15 1029.15 1029.08 1028.95 1028.75 1028.49 1028.21 1027.91 1027.61 1027.32 1027.04 1026.75 1026.46 1026.14 1025.79 1025.41 1025.01 1024.59 1024.18 1023.80 1023.46 1023.17 1022.95 1022.78 1022.66 1022.56 1022.47 1022.38 1022.28 1022.16 1022.04 1021.91 1021.80 1021.71
1029.18 1029.03 1028.88 1028.77 1028.71 1028.71 1028.75 1028.81 1028.87 1028.90 1028.88 1028.80 1028.65 1028.44 1028.18 1027.89 1027.59 1027.29 1027.00 1026.72 1026.44 1026.15 1025.83 1025.49 1025.11 1024.71 1024.29 1023.87 1023.47 1023.11 1022.80 1022.55 1022.36 1022.21 1022.10 1022.01 1021.92 1021.83 1021.73 1021.63 1021.54 1021.47 1021.42
1029.52 1029.33 1029.13 1028.95 1028.81 1028.73 1028.70 1028.69 1028.69 1028.67 1028.61 1028.49 1028.32 1028.09 1027.82 1027.52 1027.22 1026.92 1026.63 1026.35 1026.08 1025.79 1025.48 1025.14 1024.77 1024.36 1023.94 1023.51 1023.10 1022.73 1022.40 1022.13 1021.92 1021.75 1021.62 1021.51 1021.42 1021.34 1021.26 1021.18 1021.12 1021.08 1021.06
1029.96 1029.74 1029.49 1029.25 1029.04 1028.87 1028.75 1028.66 1028.59 1028.49 1028.37 1028.20 1027.99 1027.72 1027.43 1027.11 1026.80 1026.49 1026.20 1025.93 1025.65 1025.37 1025.07 1024.73 1024.36 1023.96 1023.53 1023.10 1022.69 1022.30 1021.96 1021.68 1021.44 1021.26 1021.11 1020.99 1020.89 1020.81 1020.74 1020.68 1020.65 1020.64 1020.65
1030.47 1030.22 1029.93 1029.63 1029.35 1029.10 1028.89 1028.72 1028.55 1028.37 1028.17 1027.93 1027.65 1027.34 1027.01 1026.67 1026.33 1026.02 1025.72 1025.43 1025.16 1024.87 1024.56 1024.23 1023.86 1023.46 1023.04 1022.62 1022.20 1021.81 1021.47 1021.17 1020.92 1020.72 1020.56 1020.43 1020.33 1020.25 1020.18 1020.14 1020.13 1020.14 1020.19
1030.98 1030.71 1030.38 1030.02 1029.68 1029.36 1029.07 1028.81 1028.55 1028.28 1027.99 1027.67 1027.32 1026.95 1026.56 1026.18 1025.82 1025.47 1025.15 1024.85 1024.57 1024.27 1023.96 1023.63 1023.26 1022.87 1022.46 1022.04 1021.64 1021.25 1020.91 1020.61 1020.35 1020.14 1019.97 1019.83 1019.72 1019.64 1019.58 1019.56 1019.57 1019.61 1019.70
1031.42 1031.11 1030.75 1030.35 1029.96 1029.59 1029.23 1028.88 1028.54 1028.18 1027.80 1027.40 1026.97 1026.52 1026.08 1025.64 1025.24 1024.86 1024.51 1024.19 1023.88 1023.58 1023.26 1022.93 1022.57 1022.19 1021.79 1021.39 1020.99 1020.62 1020.29 1019.99 1019.73 1019.52 1019.34 1019.19 1019.08 1019.00 1018.95 1018.94 1018.97 1019.05 1019.17
1031.70 1031.36 1030.96 1030.54 1030.12 1029.70 1029.29 1028.88 1028.46 1028.02 1027.56 1027.07 1026.56 1026.04 1025.53 1025.04 1024.58 1024.16 1023.78 1023.43 1023.11 1022.79 1022.47 1022.14 1021.79 1021.43 1021.05 1020.67 1020.30 1019.94 1019.62 1019.33 1019.08 1018.86 1018.68 1018.53 1018.41 1018.34 1018.30 1018.30 1018.36 1018.47 1018.63
1031.78 1031.41 1031.00 1030.56 1030.12 1029.67 1029.22 1028.76 1028.27 1027.76 1027.22 1026.65 1026.06 1025.47 1024.89 1024.34 1023.83 1023.37 1022.95 1022.58 1022.24 1021.92 1021.61 1021.29 1020.96 1020.61 1020.26 1019.91 1019.57 1019.24 1018.93 1018.65 1018.41 1018.19 1018.01 1017.86 1017.74 1017.67 1017.64 1017.66 1017.75 1017.89 1018.09
1031.68 1031.28 1030.85 1030.40 1029.95 1029.48 1029.00 1028.49 1027.95 1027.36 1026.75 1026.10 1025.44 1024.78 1024.14 1023.53 1022.98 1022.48 1022.04 1021.65 1021.30 1020.99 1020.68 1020.38 1020.08 1019.77 1019.45 1019.14 1018.82 1018.52 1018.24 1017.98 1017.74 1017.53 1017.35 1017.20 1017.09 1017.02 1017.00 1017.04 1017.15 1017.32 1017.55
1031.45 1031.03 1030.59 1030.13 1029.65 1029.16 1028.64 1028.08 1027.47 1026.82 1026.13 1025.41 1024.68 1023.96 1023.26 1022.61 1022.01 1021.49 1021.03 1020.64 1020.30 1019.99 1019.71 1019.44 1019.18 1018.91 1018.64 1018.36 1018.09 1017.82 1017.56 1017.32 1017.09 1016.89 1016.71 1016.57 1016.46 1016.40 1016.39 1016.45 1016.58 1016.78 1017.04
1031.20 1030.75 1030.28 1029.80 1029.29 1028.75 1028.17 1027.55 1026.87 1026.14 1025.37 1024.58 1023.78 1022.99 1022.25 1021.56 1020.94 1020.40 1019.94 1019.56 1019.23 1018.95 1018.71 1018.48 1018.25 1018.03 1017.81 1017.58 1017.34 1017.11 1016.88 1016.67 1016.46 1016.27 1016.10 1015.97 1015.87 1015.82 1015.83 1015.91 1016.06 1016.28 1016.57
Thickness
5496 5494 5493 5493 5493 5494 5495 5496 5498 5500 5501 5503 5504 5505 5506 5508 5509 5509 5511 5512 5513 5515 5515 5516 5518 5520 5521 5522 5523 5525 5526 5527 5530 5533 5535 5540 5544 5546 5549 5552 5555 5558 5561
5481 5480 5479 5479 5479 5479 5480 5482 5484 5486 5488 5489 5491 5492 5493 5495 5496 5497 5498 5499 5501 5502 5503 5504 5506 5507 5509 5509 5510 5512 5512 5514 5517 5519 5521 5525 5529 5533 5537 5539 5542 5545 5549
5468 5466 5465 5464 5464 5465 5466 5468 5470 5472 5474 5476 5477 5479 5480 5481 5482 5483 5485 5486 5487 5488 5490 5492 5494 5496 5497 5498 5499 5500 5500 5502 5503 5506 5509 5512 5516 5517 5522 5526 5529 5532 5535
5454 5452 5451 5450 5449 5450 5451 5453 5456 5458 5460 5462 5463 5464 5465 5466 5468 5470 5471 5472 5474 5475 5477 5479 5481 5483 5485 5486 5487 5489 5489 5490 5491 5493 5496 5499 5501 5503 5507 5511 5515 5518 5522
5440 5438 5437 5435 5435 5435 5436 5438 5441 5443 5446 5448 5450 5450 5451 5452 5454 5456 5458 5459 5461 5462 5464 5466 5468 5470 5472 5474 5476 5477 5478 5478 5480 5481 5483 5485 5487 5490 5493 5497 5499 5503 5508
5424 5423 5422 5421 5420 5421 5422 5424 5426 5429 5431 5433 5435 5436 5437 5439 5441 5443 5445 5446 5448 5449 5451 5453 5455 5457 5459 5461 5463 5465 5466 5467 5468 5470 5471 5473 5475 5477 5479 5482 5485 5489 5494
5409 5408 5407 5406 5406 5406 5407 5409 5412 5414 5416 5418 5420 5421 5423 5425 5427 5430 5431 5433 5434 5436 5438 5440 5441 5444 5446 5448 5450 5452 5454 5455 5456 5458 5459 5461 5464 5466 5467 5469 5471 5475 5479
5395 5394 5392 5391 5391 5391 5392 5394 5396 5398 5400 5402 5404 5406 5408 5411 5413 5415 5417 5419 5421 5423 5425 5427 5429 5431 5432 5435 5437 5439 5441 5443 5444 5446 5447 5449 5451 5453 5455 5457 5458 5460 5465
5382 5380 5378 5377 5377 5376 5377 5379 5381 5382 5384 5387 5389 5391 5393 5395 5397 5400 5402 5404 5407 5409 5412 5414 5416 5418 5419 5421 5423 5425 5428 5430 5431 5433 5434 5437 5439 5440 5442 5444 5446 5448 5452
5368 5366 5364 5364 5363 5363 5363 5364 5365 5367 5368 5371 5373 5375 5377 5380 5382 5385 5387 5389 5392 5395 5398 5401 5403 5404 5406 5408 5410 5412 5414 5416 5418 5420 5422 5424 5426 5427 5429 5431 5433 5436 5439
5355 5352 5350 5350 5350 5350 5349 5350 5351 5352 5354 5355 5358 5360 5362 5365 5367 5369 5371 5374 5377 5380 5382 5386 5388 5391 5393 5395 5396 5398 5400 5403 5405 5407 5409 5411 5413 5415 5416 5418 5420 5422 5425
5344 5340 5338 5337 5336 5336 5336 5336 5336 5338 5339 5341 5343 5344 5347 5349 5352 5354 5356 5359 5361 5365 5368 5371 5374 5376 5379 5381 5382 5385 5387 5389 5392 5394 5396 5398 5400 5401 5403 5405 5407 5409 5412
5332 5329 5327 5325 5324 5323 5323 5323 5323 5324 5325 5327 5328 5330 5332 5335 5337 5339 5341 5343 5346 5349 5352 5355 5359 5362 5364 5367 5369 5371 5374 5376 5378 5381 5383 5385 5386 5388 5389 5391 5394 5396 5399
5321 5318 5315 5313 5312 5311 5310 5310 5311 5311 5313 5314 5315 5317 5318 5320 5321 5323 5325 5328 5331 5333 5337 5340 5343 5346 5349 5353 5356 5358 5361 5363 5365 5367 5370 5371 5372 5375 5376 5378 5380 5382 5385
5311 5308 5305 5302 5300 5299 5299 5298 5298 5299 5300 5301 5303 5304 5305 5305 5307 5309 5311 5313 5315 5318 5321 5325 5329 5332 5335 5339 5343 5345 5347 5349 5351 5354 5356 5358 5360 5362 5363 5366 5368 5369 5372
5300 5297 5294 5291 5290 5289 5288 5287 5286 5287 5288 5289 5290 5291 5292 5292 5294 5295 5297 5299 5301 5303 5306 5309 5313 5317 5320 5324 5328 5331 5334 5336 5338 5340 5343 5344 5346 5349 5351 5353 5356 5358 5360
5287 5284 5282 5280 5278 5276 5276 5274 5274 5275 5275 5277 5278 5279 5280 5280 5281 5282 5284 5285 5287 5290 5292 5295 5299 5302 5306 5310 5314 5317 5320 5323 5325 5327 5329 5331 5334 5336 5338 5340 5343 5346 5349
5277 5274 5270 5268 5266 5265 5264 5263 5263 5263 5263 5264 5266 5267 5268 5269 5270 5271 5272 5273 5275 5276 5279 5283 5285 5289 5292 5296 5300 5304 5307 5310 5312 5314 5316 5318 5320 5323 5325 5327 5330 5333 5336
5266 5262 5260 5257 5256 5254 5253 5252 5252 5252 5252 5253 5254 5255 5256 5257 5259 5260 5261 5262 5263 5265 5267 5270 5273 5276 5279 5282 5286 5290 5293 5296 5299 5301 5304 5306 5308 5311 5314 5316 5319 5322 5325
5255 5252 5250 5247 5246 5244 5242 5241 5241 5241 5241 5243 5244 5245 5246 5247 5248 5248 5250 5251 5252 5254 5257 5259 5261 5263 5266 5269 5273 5276 5279 5283 5287 5289 5292 5295 5297 5300 5302 5304 5307 5311 5314
5246 5243 5240 5237 5236 5234 5232 5231 5231 5231 5232 5233 5234 5235 5236 5237 5238 5238 5239 5240 5242 5243 5245 5247 5250 5252 5254 5257 5260 5263 5266 5269 5272 5276 5279 5282 5285 5288 5291 5293 5295 5299 5302
5237 5233 5230 5228 5226 5224 5222 5222 5222 5223 5223 5223 5224 5225 5226 5226 5228 5228 5229 5230 5230 5231 5232 5235 5238 5240 5242 5245 5248 5251 5254 5256 5259 5262 5265 5268 5271 5275 5278 5281 5285 5287 5290
5229 5225 5222 5220 5218 5216 5214 5213 5214 5214 5214 5213 5214 5215 5216 5217 5217 5217 5218 5219 5219 5219 5221 5223 5225 5228 5231 5232 5235 5238 5241 5243 5245 5248 5251 5254 5258 5261 5264 5267 5271 5273 5276
5222 5219 5215 5212 5211 5209 5208 5207 5207 5206 5205 5205 5205 5206 5206 5207 5208 5208 5208 5208 5208 5208 5210 5211 5213 5215 5218 5220 5222 5224 5226 5229 5231 5234 5237 5240 5243 5246 5249 5252 5255 5259 5262
5216 5213 5209 5207 5205 5203 5202 5201 5200 5199 5197 5197 5197 5197 5198 5197 5198 5198 5198 5198 5199 5198 5199 5201 5202 5204 5207 5209 5211 5213 5215 5217 5219 5221 5223 5225 5227 5230 5234 5237 5240 5244 5247
5210 5207 5204 5202 5200 5198 5196 5195 5194 5192 5190 5190 5190 5189 5189 5188 5188 5188 5189 5190 5190 5191 5191 5193 5194 5195 5197 5199 5201 5203 5204 5206 5208 5209 5210 5212 5213 5216 5219 5222 5226 5229 5233